Regional Weather Roundup
Issued by NWS

Home | Current Version | Previous Version | Graphics & Text | Print | Product List | Glossary Off
Versions: 1 2 3 4 5 6 7 8 9 10 11 12 13 14 15 16 17 18 19 20 21 22 23 24 25 26 27 28 29 30 31 32 33 34 35 36 37 38 39 40 41 42 43 44 45 46 47 48 49 50

000
ASUS45 KPSR 061310
RWRAZ

ARIZONA REGIONAL HOURLY WEATHER ROUNDUP
NATIONAL WEATHER SERVICE PHOENIX AZ
600 AM MST FRI MAR 06 2015

NOTE: FAIR INDICATES FEW OR NO CLOUDS BELOW 12,000 FEET WITH NO
SIGNIFICANT WEATHER AND/OR OBSTRUCTIONS TO VISIBILITY.

AZZ001>003-036-061400-
NORTHWEST ARIZONA

CITY           SKY/WX    TMP DP  RH WIND       PRES   REMARKS
BULLHEAD CITY  CLEAR     57  27  30 NE25      30.21S
KINGMAN        CLEAR     34  24  67 E6        30.27S WCI  29
$$

AZZ004>008-015-016-018-061400-
NORTH CENTRAL ARIZONA

CITY           SKY/WX    TMP DP  RH WIND       PRES   REMARKS
GRAND CANYON     N/A    N/A N/A N/A MISG      30.35R
PRESCOTT       CLEAR     27  15  61 S3        30.30R
FLAGSTAFF      CLEAR     27  11  51 NE10      30.33S WCI  17
PAYSON         CLEAR     39  14  35 NE6       30.30S WCI  35
PAGE           CLEAR     34  24  67 SW3       30.39R
$$

AZZ009>014-017-061400-
NORTHEAST ARIZONA

CITY           SKY/WX    TMP DP  RH WIND       PRES   REMARKS
WINSLOW        PTCLDY    22  18  85 SE5       30.38R WCI  16
SAINT JOHNS    CLEAR     16   9  74 CALM      30.34S
WINDOW ROCK    CLEAR     19  12  74 CALM      30.38R
SHOW LOW       CLEAR     19  10  68 CALM      30.36R
$$

AZZ023-061400-
GREATER PHOENIX AREA

CITY           SKY/WX    TMP DP  RH WIND       PRES   REMARKS
PHOENIX        CLEAR     54  24  31 E7        30.14S
BUCKEYE        CLEAR     46  30  53 NW5       30.15S
GLENDALE       CLEAR     46  32  57 CALM      30.17
LUKE AFB       CLEAR     45  31  58 N6        30.15R
DEER VALLEY    CLEAR     52  17  25 NE7       30.15S
SCOTTSDALE     CLEAR     50  25  37 CALM      30.16S
MESA-FALCON    CLEAR     54  18  24 NW12      30.15
MESA-GATEWAY   CLEAR     46  32  57 NE5       30.17S
CHANDLER       CLEAR     48  30  49 NE9       30.15
$$

AZZ027-028-061400-
SOUTHWEST MARICOPA COUNTY AND PINAL COUNTY

CITY           SKY/WX    TMP DP  RH WIND       PRES   REMARKS
CASA GRANDE    CLEAR     55  23  28 E15       30.14S
GILA BEND      FAIR      51  30  44 E10       30.11S
$$

AZZ503-504-507>509-061400-
SOUTHEAST ARIZONA

CITY           SKY/WX    TMP DP  RH WIND       PRES   REMARKS
TUCSON         CLEAR     49  21  33 E9        30.17R
DAVIS-MONTHAN  CLEAR     43  23  45 E10       30.15R
RYAN FIELD       N/A     52  25  35 E15G23    30.15
NOGALES        CLEAR     44  25  47 E3        30.14S
SIERRA VISTA   CLEAR     36  27  69 E8        30.21R WCI  29
DOUGLAS        CLEAR     45  25  45 E10       30.23R
SAFFORD        CLEAR     39  21  48 SE10      30.30R WCI  32
$$

AZZ020-021-025-026-031-061400-
SOUTHWEST ARIZONA

CITY           SKY/WX    TMP DP  RH WIND       PRES   REMARKS
YUMA           CLEAR     60  25  26 N12       30.09S
$$

CAZ031-033-041-043-047-048-061-061400-
SOUTHERN CALIFORNIA

CITY           SKY/WX    TMP DP  RH WIND       PRES   REMARKS
DOWNTOWN L.A.  CLEAR     50  27  40 CALM      30.12F
L.A. AIRPORT   CLEAR     52  26  36 CALM      30.13S
SAN DIEGO      CLEAR     52  31  44 CALM      30.12S
BURBANK        CLEAR     44  23  43 N5        30.13S
ONTARIO        CLEAR     48  23  37 VRB3      30.14R
RIVERSIDE      CLEAR     48  25  40 E6        30.15R
PALM SPRINGS   CLEAR     57  22  25 W7        30.18S
EL CENTRO NAS  CLEAR     47  30  51 W9        30.11S
IMPERIAL       CLEAR     45  33  63 W3        30.11S
BLYTHE         CLEAR     48  36  63 CALM      30.16S
NEEDLES        CLEAR     54  27  35 NW9       30.22R
$$

NVZ020-UTZ003-061400-
SOUTHERN NEVADA-UTAH

CITY           SKY/WX    TMP DP  RH WIND       PRES   REMARKS
LAS VEGAS      CLEAR     45  30  55 S9        30.26R
SALT LAKE CITY CLEAR     31  23  72 SE7       30.42S WCI  24
$$

NMZ009-TXZ055-061400-
NEW MEXICO-WEST TEXAS

CITY           SKY/WX    TMP DP  RH WIND       PRES   REMARKS
ALBUQUERQUE    CLEAR     32  14  47 N6        30.38R WCI  26
EL PASO        PTCLDY    27  20  75 CALM      30.36R
$$


........................KEY........................
SKY/WX - SKY CONDITION/WEATHER
TMP    - TEMPERATURE IN FAHRENHEIT
DP     - DEW POINT IN FAHRENHEIT
RH     - RELATIVE HUMIDITY IN PERCENT
WIND   - DIRECTION AND SPEED IN MILES PER HOUR (MPH)
VRB    - VARIABLE WIND DIRECTION
PRES   - MEAN SEA LEVEL PRESSURE IN INCHES OF MERCURY
         F - FALLING PRESSURE   R - RISING PRESSURE
         S - STEADY PRESSURE
VSB    - VISIBILITY IN MILES
HX     - HEAT INDEX IN FAHRENHEIT
WCI    - WIND CHILL INDEX IN FAHRENHEIT
TC     - TEMPERATURE IN CELSIUS WHICH IS ALSO KNOWN AS
         TEMPERATURE IN CENTIGRADE
AFB    - AIR FORCE BASE
         LUKE AFB IS LUKE AIR FORCE BASE
         DAVIS-MONTHAN IS DAVIS-MONTHAN AIR FORCE BASE
NAS    - NAVAL AIR STATION
         EL CENTRO NAS IS EL CENTRO NAVAL AIR STATION
N/A    - NOT AVAILABLE



USA.gov is the U.S. government's official web portal to all federal, state and local government web resources and services.